This demonstration page uses our WeatherBlox Daily Observations layout. Learn more.

Left ArrowRight Arrow

Hourly Observations for March 6, 2019

Temp ( °F °C ) Dew Point ( °F °C ) Humidity (%) Winds ( mph kmh ) Pressure ( in mb ) Visibility ( mi km ) Precip ( " mm )
12:52 am 00:52 Clear 11 -11.7 3 -16.1 70 70 Calm 30.44 1031 10 16 0.00 0.00
1:52 am 01:52 Clear 10 -12.2 2 -16.7 69 69 Calm 30.43 1031 10 16 0.00 0.00
2:52 am 02:52 Clear 8 -13.3 1 -17.2 73 73 SSE 6 9 30.42 1030 10 16 0.00 0.00
3:52 am 03:52 Clear 8 -13.3 1 -17.2 73 73 S 7 11 30.40 1030 10 16 0.00 0.00
4:52 am 04:52 Clear 5 -15 -1 -18.3 76 76 S 12 19 30.41 1030 10 16 0.00 0.00
5:52 am 05:52 Clear 5 -15 -1 -18.3 76 76 SSE 9 15 30.40 1029 10 16 0.00 0.00
6:52 am 06:52 Mostly Sunny 6 -14.4 0 -17.8 76 76 SSE 9 15 30.40 1029 10 16 0.00 0.00
7:52 am 07:52 Mostly Sunny 7 -13.9 1 -17.2 76 76 SSE 9 15 30.39 1029 10 16 0.00 0.00
8:52 am 08:52 Partly Cloudy 10 -12.2 3 -16.1 73 73 SSE 7 11 30.40 1029 10 16 0.00 0.00
9:52 am 09:52 Mostly Cloudy 15 -9.4 5 -15 64 64 SSE 7 11 30.41 1030 10 16 0.00 0.00
10:52 am 10:52 Mostly Cloudy 18 -7.8 7 -13.9 62 62 SE 7 11 30.40 1030 10 16 0.00 0.00
11:52 am 11:52 Cloudy 22 -5.6 10 -12.2 60 60 SE 10 17 30.38 1029 10 16 0.00 0.00
12:52 pm 12:52 Mostly Cloudy 27 -2.8 12 -11.1 53 53 SE 10 17 30.34 1028 10 16 0.00 0.00
1:52 pm 13:52 Cloudy 28 -2.2 13 -10.6 53 53 SE 10 17 30.30 1026 10 16 0.00 0.00
2:52 pm 14:52 Cloudy 30 -1.1 12 -11.1 47 47 SSE 8 13 30.29 1026 10 16 0.00 0.00
3:52 pm 15:52 Cloudy 31 -0.6 14 -10 49 49 SSE 10 17 30.27 1025 10 16 0.00 0.00
4:52 pm 16:52 Cloudy 30 -1.1 13 -10.6 49 49 SSE 5 7 30.26 1025 10 16 0.00 0.00
5:52 pm 17:52 Cloudy 29 -1.7 17 -8.3 61 61 E 7 11 30.27 1025 10 16 0.00 0.00
6:52 pm 18:52 Cloudy 27 -2.8 17 -8.3 66 66 SE 6 9 30.29 1026 10 16 0.00 0.00
7:52 pm 19:52 Cloudy 27 -2.8 18 -7.8 69 69 SE 3 6 30.31 1026 10 16 0.00 0.00
8:52 pm 20:52 Cloudy 27 -2.8 16 -8.9 63 63 E 5 7 30.30 1026 10 16 0.00 0.00
9:52 pm 21:52 Cloudy 27 -2.8 16 -8.9 63 63 E 6 9 30.29 1026 10 16 0.00 0.00
10:52 pm 22:52 Cloudy 28 -2.2 16 -8.9 60 60 Calm 30.30 1026 10 16 0.00 0.00
11:52 pm 23:52 Cloudy 28 -2.2 16 -8.9 60 60 ESE 3 6 30.29 1026 10 16 0.00 0.00

Powered by AerisWeather